View from above orbital plane
|
View from above satellite
|
Ground track
|
The orbit data is extracted from the following two-line orbital elements,
1 10513U 77116B 21015.53841892 -.00000039 00000-0 41240-4 0 9999
2 10513 65.8335 115.0190 0017778 125.8875 246.1685 13.78561572168063
Epoch (UTC): | 15 January 2021 12:55:19 |
Eccentricity: | 0.0017778 |
inclination: | 65.8335° |
perigee height: | 956 km |
apogee height: | 982 km |
right ascension of ascending node: | 115.0190° |
argument of perigee: | 125.8875° |
revolutions per day: | 13.78561572 |
mean anomaly at epoch: | 246.1685° |
orbit number at epoch: | 16806 |
The dashed part of the orbit path shows where the satellite is in the earth's shadow,
|
|